TimeCDT,TemperatureF,Dew PointF,Humidity,Sea Level PressureIn,VisibilityMPH,Wind Direction,Wind SpeedMPH,Gust SpeedMPH,PrecipitationIn,Events,Conditions,WindDirDegrees,DateUTC
12:53 AM,72.0,66.9,84,30.01,10.0,West,4.6,-,N/A,,Clear,270,2013-06-28 05:53:00
1:53 AM,70.0,66.9,90,30.01,10.0,Calm,Calm,-,N/A,,Clear,0,2013-06-28 06:53:00
2:53 AM,70.0,66.9,90,30.00,10.0,West,6.9,-,N/A,,Clear,280,2013-06-28 07:53:00
3:53 AM,70.0,66.9,90,30.00,10.0,West,6.9,-,N/A,,Clear,280,2013-06-28 08:53:00
4:53 AM,70.0,66.0,87,30.01,10.0,West,5.8,-,N/A,,Scattered Clouds,280,2013-06-28 09:53:00
5:53 AM,70.0,64.9,84,30.01,10.0,WNW,8.1,-,N/A,,Partly Cloudy,300,2013-06-28 10:53:00
6:53 AM,70.0,64.9,84,30.03,10.0,NW,6.9,-,N/A,,Clear,310,2013-06-28 11:53:00
7:53 AM,73.0,63.0,71,30.05,10.0,NNW,9.2,-,N/A,,Clear,330,2013-06-28 12:53:00
8:53 AM,75.9,60.1,58,30.06,10.0,NNW,11.5,-,N/A,,Clear,330,2013-06-28 13:53:00
9:53 AM,80.1,57.0,45,30.05,10.0,North,13.8,-,N/A,,Clear,350,2013-06-28 14:53:00
10:53 AM,82.0,55.9,41,30.04,10.0,North,13.8,-,N/A,,Clear,350,2013-06-28 15:53:00
11:53 AM,84.0,54.0,35,30.05,10.0,North,18.4,-,N/A,,Clear,350,2013-06-28 16:53:00
12:53 PM,84.9,52.0,32,30.04,10.0,NNW,20.7,27.6,N/A,,Clear,340,2013-06-28 17:53:00
1:53 PM,86.0,52.0,31,30.03,10.0,NNW,21.9,26.5,N/A,,Clear,340,2013-06-28 18:53:00
2:53 PM,87.1,52.0,30,30.01,10.0,North,20.7,27.6,N/A,,Clear,350,2013-06-28 19:53:00
3:53 PM,88.0,52.0,29,30.00,10.0,North,18.4,26.5,N/A,,Clear,350,2013-06-28 20:53:00
4:53 PM,87.1,51.1,29,29.98,10.0,North,16.1,-,N/A,,Clear,350,2013-06-28 21:53:00
5:53 PM,87.1,51.1,29,29.98,10.0,North,16.1,24.2,N/A,,Clear,360,2013-06-28 22:53:00
6:53 PM,86.0,52.0,31,29.96,10.0,North,19.6,-,N/A,,Clear,350,2013-06-28 23:53:00
7:53 PM,82.9,55.0,38,29.97,10.0,North,10.4,-,N/A,,Clear,10,2013-06-29 00:53:00
8:53 PM,78.1,57.9,50,29.97,10.0,NNE,5.8,-,N/A,,Clear,20,2013-06-29 01:53:00
9:53 PM,71.1,60.1,68,29.98,10.0,NW,4.6,-,N/A,,Clear,310,2013-06-29 02:53:00
10:53 PM,69.1,57.9,68,29.99,10.0,NNW,4.6,-,N/A,,Clear,330,2013-06-29 03:53:00
11:53 PM,69.1,57.9,68,29.99,10.0,NNW,5.8,-,N/A,,Clear,330,2013-06-29 04:53:00